Weather History for KHSE - December, 2011

Change the Weather History Date:

Saturday, December 24, 2011

  Actual Average Record
Temperature  
Mean Temperature 51 °F 47 °F  
Max Temperature 54 °F 54 °F 72 °F (1957)
Min Temperature 48 °F 41 °F 13 °F (1983)
Degree Days  
Heating Degree Days 14 18  
Month to date heating degree days 238 361  
Since 1 July heating degree days 496 679  
Cooling Degree Days 0 0  
Month to date cooling degree days 3 0  
Year to date cooling degree days 2381 1711  
Growing Degree Days 1 (Base 50)    
Moisture  
Dew Point 41 °F    
Average Humidity 69    
Maximum Humidity 83    
Minimum Humidity 54    
Precipitation  
Precipitation 0.00 in 0.15 in 2.54 in (1941)
Month to date precipitation 0.96 3.29  
Year to date precipitation 61.11 57.06  
Snow  
Snow 0.00 in - - ()
Month to date snowfall 0.0  
Since 1 July snowfall 0.0  
Snow Depth 0.00 in    
Sea Level Pressure  
Sea Level Pressure 30.34 in    
Wind  
Wind Speed 8 mph (NNE)    
Max Wind Speed 13 mph    
Max Gust Speed 22 mph    
Visibility 10 miles    
Events      
T = Trace of Precipitation, MM = Missing Value Source: NWS Daily Summary

Daily Weather History Graph

Daily Weather History Graph

Search for Another Location

Airport or City:

Trip Planner

Search our weather history database for the weather conditions in past years. The results will help you decide how hot, cold, wet, or windy it might be!

Date:

Astronomy

Dec. 24, 2011 Rise Set
Actual Time 7:08 AM EST 4:55 PM EST
Civil Twilight 6:40 AM EST 5:23 PM EST
Nautical Twilight 6:08 AM EST 5:55 PM EST
Astronomical Twilight 5:37 AM EST 6:26 PM EST
Moon 6:54 AM EST (12/24) 5:05 PM EST (12/24)
Length of Visible Light 10h 43m
Length of Day
9h 47m
Waning Crescent, 0% of the Moon is Illuminated
Dec 24
Waning Crescent
Dec 24
New
Jan 1
First Quarter
Jan 9
Full
Jan 16
Last Quarter

Hourly Weather History & Observations

Time (EST) Temp. Dew Point Humidity Pressure Visibility Wind Dir Wind Speed Gust Speed Precip Events Conditions
12:51 AM 54.0 °F 46.9 °F 77% 30.20 in 10.0 mi NNE 8.1 mph - N/A   Mostly Cloudy
1:51 AM 53.1 °F 46.9 °F 80% 30.21 in 10.0 mi North 9.2 mph - N/A   Clear
2:51 AM 53.1 °F 46.0 °F 77% 30.22 in 10.0 mi North 8.1 mph - N/A   Clear
3:51 AM 52.0 °F 44.1 °F 74% 30.23 in 10.0 mi North 6.9 mph 16.1 mph N/A   Clear
4:51 AM 51.1 °F 44.1 °F 77% 30.24 in 10.0 mi Variable 6.9 mph - N/A   Clear
5:51 AM 51.1 °F 44.1 °F 77% 30.26 in 10.0 mi NNE 8.1 mph 17.3 mph N/A   Clear
6:51 AM 50.0 °F 42.1 °F 74% 30.29 in 10.0 mi NNE 8.1 mph - N/A   Clear
7:51 AM 51.1 °F 39.0 °F 63% 30.32 in 10.0 mi NNE 8.1 mph - N/A   Clear
8:51 AM 52.0 °F 41.0 °F 66% 30.36 in 10.0 mi North 8.1 mph - N/A   Clear
9:51 AM 54.0 °F 41.0 °F 62% 30.38 in 10.0 mi North 10.4 mph 18.4 mph N/A   Clear
10:51 AM 54.0 °F 39.0 °F 57% 30.38 in 10.0 mi NNE 9.2 mph 20.7 mph N/A   Clear
11:51 AM 54.0 °F 39.0 °F 57% 30.37 in 10.0 mi NNE 10.4 mph 18.4 mph N/A   Clear
12:51 PM 54.0 °F 39.0 °F 57% 30.36 in 10.0 mi NNE 10.4 mph 18.4 mph N/A   Clear
1:51 PM 54.0 °F 37.9 °F 55% 30.36 in 10.0 mi NNE 9.2 mph 19.6 mph N/A   Clear
2:51 PM 52.0 °F 37.9 °F 59% 30.36 in 10.0 mi NNE 11.5 mph 19.6 mph N/A   Clear
3:51 PM 51.1 °F 37.9 °F 61% 30.38 in 10.0 mi NNE 8.1 mph 17.3 mph N/A   Clear
4:51 PM 50.0 °F 37.0 °F 61% 30.39 in 10.0 mi NE 9.2 mph - N/A   Clear
5:51 PM 50.0 °F 37.9 °F 63% 30.40 in 10.0 mi Variable 6.9 mph - N/A   Clear
6:51 PM 50.0 °F 39.0 °F 66% 30.42 in 10.0 mi Variable 5.8 mph - N/A   Clear
7:51 PM 48.9 °F 39.0 °F 69% 30.43 in 10.0 mi NNE 4.6 mph - N/A   Clear
8:51 PM 48.9 °F 39.0 °F 69% 30.44 in 10.0 mi NNE 4.6 mph - N/A   Clear
9:51 PM 48.0 °F 39.0 °F 71% 30.43 in 10.0 mi NNE 4.6 mph - N/A   Clear
10:51 PM 48.0 °F 39.0 °F 71% 30.43 in 10.0 mi Variable 5.8 mph - N/A   Clear
11:51 PM 48.0 °F 39.0 °F 71% 30.41 in 10.0 mi NE 6.9 mph - N/A   Clear